Wind_Speed
52 51 51 52 53 55 55 55 54 54 54 53 53 52 52 52 52 52 50 49 47 46 45 45 44 43 42 40 37 35 35 35 32 30 30 32 34 35 35 34 33 32
50 52 53 55 58 60 61 62 62 61 60 58 56 55 54 54 53 52 50 48 47 46 45 45 45 44 42 39 36 35 36 36 32 29 30 34 37 38 39 39 38 36
47 50 51 52 57 60 61 62 63 63 62 60 59 58 57 56 55 53 52 50 49 48 46 46 45 44 42 39 36 35 36 36 36 36 38 41 41 41 42 42 42 40
46 47 49 48 50 55 57 57 57 59 59 59 59 58 58 58 57 56 55 53 52 51 49 48 46 45 43 42 41 40 40 40 42 44 45 45 44 44 44 44 44 43
46 46 48 47 47 51 55 55 56 58 60 60 60 59 58 58 57 57 56 54 53 52 51 49 47 46 45 44 45 45 46 46 46 47 47 47 46 46 46 46 46 45
51 52 53 52 52 53 55 56 57 60 63 64 63 62 61 60 58 56 55 54 54 52 51 50 49 47 47 47 47 48 49 49 48 48 48 48 48 48 48 47 47 48
53 55 56 56 56 57 58 60 60 62 63 64 64 63 62 61 59 57 56 55 54 54 53 52 51 50 49 50 50 50 50 50 50 50 50 50 50 51 50 48 47 48
54 57 58 57 58 60 62 63 64 64 64 63 62 61 61 60 59 58 56 56 56 55 55 54 54 53 53 53 53 53 53 52 52 52 53 54 54 52 50 47 46 47
58 60 62 62 62 64 65 64 64 65 64 63 61 59 58 57 57 57 57 56 57 57 57 57 57 57 56 56 56 56 56 55 56 57 57 57 55 52 49 47 46 45
61 63 64 64 64 66 67 67 65 63 62 61 60 58 56 55 56 58 58 58 58 58 59 60 60 59 59 59 59 59 59 59 60 60 60 58 55 51 49 48 47 45
62 64 64 63 63 65 66 66 65 63 61 61 60 58 57 56 57 58 58 57 58 59 60 61 61 62 63 63 62 62 62 63 63 62 60 57 54 52 50 49 49 48
63 64 64 63 64 65 65 63 62 60 59 60 61 60 58 58 58 59 59 58 59 61 63 65 66 67 68 68 67 65 64 63 62 59 56 54 52 51 51 51 51 51
63 64 64 64 64 65 65 64 64 63 63 64 65 65 63 63 63 63 64 65 66 68 71 72 73 75 75 73 70 65 62 59 56 54 51 50 50 51 51 52 51 51
63 63 62 62 63 63 64 65 66 66 67 69 70 69 69 68 67 67 68 69 70 71 73 76 78 78 78 76 70 62 57 55 54 52 50 49 50 50 50 49 48 47
62 62 61 61 59 58 60 63 64 64 66 69 71 71 71 70 70 69 67 68 68 68 69 72 76 76 75 74 70 61 53 50 50 49 49 49 50 49 48 46 46 46
61 61 61 60 58 56 57 60 61 62 65 68 69 70 70 69 68 67 65 65 65 64 65 67 68 70 70 70 68 60 50 45 45 46 47 48 49 49 48 48 48 49
60 59 59 59 59 59 59 60 62 64 66 66 67 68 68 67 66 64 63 63 63 63 64 64 64 66 69 69 66 61 54 48 47 47 47 48 50 50 50 50 50 50
59 58 58 58 58 59 59 59 61 65 66 66 66 65 64 64 64 63 61 61 62 64 65 66 65 66 68 69 67 64 60 56 53 51 50 51 52 53 53 52 52 52
60 58 58 58 59 59 60 60 61 63 65 66 65 64 62 62 63 62 62 62 63 65 66 67 66 66 67 68 68 67 65 62 59 57 55 54 54 55 55 55 55 54
61 60 59 59 60 60 61 63 64 64 66 67 66 63 62 61 61 62 63 64 66 67 67 67 67 68 68 69 69 69 68 66 64 61 60 58 57 57 58 58 58 57
62 62 61 61 62 62 62 65 67 67 69 70 67 65 64 63 62 63 64 65 67 68 69 69 70 70 70 70 70 70 70 70 68 67 65 63 62 61 61 61 60 60
63 64 64 64 64 64 64 66 68 69 71 71 69 67 66 66 66 66 66 66 68 69 70 71 72 73 73 73 73 73 73 73 73 72 70 68 66 65 64 63 63 64
63 64 65 66 66 66 67 67 68 69 71 71 70 69 69 69 69 69 69 69 69 70 71 73 74 75 75 75 75 75 76 76 76 75 73 71 69 68 67 67 67 67
60 62 63 65 66 67 68 69 69 70 71 71 71 71 71 71 71 71 71 72 72 73 73 74 75 75 75 76 76 76 76 76 76 76 74 73 72 71 70 70 70 71
58 59 61 62 64 66 67 68 69 70 71 71 72 73 73 73 73 73 73 73 74 75 75 75 76 76 75 75 75 76 76 75 75 75 74 74 73 73 72 72 72 73
59 60 61 62 63 65 66 67 68 69 70 70 71 72 73 72 73 73 74 75 76 76 76 76 76 76 76 76 75 75 74 74 74 74 74 74 74 74 74 74 74 75
Wind_Direction
269 269 270 272 271 269 268 268 269 271 275 278 281 283 285 286 287 288 287 286 285 283 283 283 283 283 282 280 276 273 273 278 283 289 293 293 288 282 277 275 274 271
266 266 268 271 273 274 273 272 270 271 273 276 279 282 284 285 285 285 285 285 283 283 282 282 282 281 281 277 272 271 273 275 277 285 294 297 295 289 282 277 274 271
270 270 271 274 276 278 278 278 279 278 278 279 280 282 283 284 284 284 284 284 283 282 281 281 280 279 278 274 270 271 274 273 274 280 289 293 294 292 287 280 275 271
269 271 273 274 276 277 277 278 279 281 283 283 283 283 283 283 284 285 284 283 282 281 281 280 279 278 277 274 271 273 275 275 275 278 284 287 288 290 289 282 276 272
264 268 271 271 272 274 276 277 278 280 282 283 283 283 283 284 284 284 284 282 282 281 280 280 279 278 277 275 274 275 276 277 277 279 282 285 286 288 289 284 276 271
266 268 268 267 267 269 272 274 276 278 280 281 282 282 282 283 283 283 282 282 281 281 281 281 280 279 279 278 277 277 278 278 279 281 283 286 287 288 289 285 276 270
263 264 263 263 264 265 267 269 271 274 277 279 282 283 284 284 283 282 282 282 282 282 282 281 281 281 280 279 279 279 280 280 281 284 286 288 289 290 289 285 278 270
257 257 258 258 260 262 264 266 268 270 273 276 280 283 285 285 285 285 284 283 283 282 283 282 282 281 280 279 279 279 281 282 284 286 288 289 290 290 288 285 280 273
258 256 256 258 260 261 262 264 267 269 270 273 277 279 282 284 286 286 285 284 283 283 283 282 282 281 280 278 278 279 280 283 285 288 288 289 289 287 286 283 280 276
260 258 259 260 261 262 263 264 266 268 269 271 273 274 275 277 278 280 281 282 282 282 282 281 280 279 278 277 278 279 280 283 286 288 288 287 286 284 282 280 277 275
260 260 260 260 260 261 263 265 267 268 270 270 271 270 270 272 273 275 277 278 279 279 278 277 276 276 276 276 278 280 282 284 287 288 286 285 283 281 279 277 274 272
260 260 259 258 258 259 260 263 265 266 267 267 267 267 266 266 267 269 271 273 274 275 275 274 274 274 274 275 278 281 284 287 287 286 285 283 281 278 276 275 274 272
259 259 258 257 258 258 259 260 261 261 262 262 263 263 263 262 262 263 265 267 269 271 273 274 274 274 275 276 279 282 285 286 284 282 281 279 277 276 275 274 274 273
259 258 257 256 256 257 258 258 259 260 261 261 261 262 263 263 263 263 265 267 269 271 273 274 274 275 277 279 281 283 283 282 280 279 277 275 274 273 273 273 273 273
259 258 257 256 256 257 257 257 258 259 261 262 262 262 262 263 264 265 266 268 271 274 275 276 277 279 280 282 284 284 283 280 278 277 275 274 273 271 271 271 271 272
259 259 259 259 258 258 258 259 260 260 260 262 264 264 264 265 266 268 269 270 272 274 275 276 279 279 281 284 285 285 282 278 275 275 275 274 273 271 271 272 273 274
259 259 260 260 260 260 260 262 263 263 262 263 265 267 269 270 270 270 271 272 272 272 273 275 275 275 278 282 284 284 283 279 274 273 273 272 271 270 271 273 273 273
257 258 259 259 260 261 261 261 262 262 263 264 265 267 270 272 272 273 273 272 271 271 272 273 273 272 275 278 281 283 283 280 277 274 273 272 271 271 272 273 274 274
256 256 257 258 258 259 259 258 258 260 262 264 264 266 268 271 273 274 274 273 272 271 271 271 271 271 272 275 278 280 281 280 279 277 276 274 273 272 273 275 276 276
257 256 256 257 258 258 258 258 258 260 262 264 265 267 268 269 271 272 273 273 272 272 272 271 271 271 272 274 276 278 279 279 279 279 278 277 275 274 275 276 277 277
257 257 257 257 257 257 256 257 258 259 261 263 265 267 267 268 269 269 269 269 269 269 270 270 271 271 271 272 273 275 276 278 279 279 279 278 277 276 276 277 278 278
257 256 256 255 255 255 255 255 257 259 261 263 264 265 265 267 267 267 267 266 265 265 265 267 268 269 270 270 271 272 273 275 277 278 278 278 277 277 277 278 278 278
255 255 255 255 255 255 254 254 255 257 260 262 263 264 264 265 266 266 266 266 265 264 264 264 265 266 268 269 270 271 272 273 274 276 276 276 276 276 276 277 278 278
253 254 255 255 255 255 255 255 255 256 258 260 262 263 263 264 265 265 265 265 265 265 264 264 264 265 267 268 269 270 271 272 272 273 274 274 275 275 275 276 276 277
253 254 254 255 255 256 256 256 256 257 257 258 259 261 262 262 263 264 264 264 264 264 264 264 264 265 266 267 268 269 270 271 271 271 272 272 273 273 273 274 275 275
255 255 255 255 255 255 256 256 257 257 257 257 257 258 259 260 261 261 262 262 262 262 263 263 263 264 265 266 267 268 269 269 269 269 269 269 270 270 271 271 272 273
Height
10573 10572 10570 10568 10567 10566 10568 10571 10573 10575 10577 10579 10580 10581 10582 10583 10584 10585 10585 10585 10585 10585 10585 10584 10585 10585 10585 10585 10585 10585 10585 10585 10585 10585 10585 10586 10586 10586 10586 10586 10586 10586
10568 10567 10564 10562 10558 10557 10559 10559 10562 10567 10571 10573 10574 10575 10576 10577 10578 10579 10579 10579 10579 10579 10579 10579 10579 10579 10579 10579 10579 10580 10580 10581 10581 10580 10580 10581 10581 10582 10581 10581 10581 10581
10561 10558 10557 10556 10552 10550 10550 10549 10551 10555 10561 10565 10567 10569 10569 10570 10571 10572 10573 10573 10573 10573 10573 10573 10573 10573 10573 10573 10574 10574 10575 10575 10575 10575 10575 10576 10577 10577 10577 10576 10576 10576
10553 10551 10550 10550 10548 10544 10542 10543 10544 10546 10550 10554 10557 10560 10561 10563 10564 10565 10565 10565 10565 10566 10566 10566 10566 10567 10567 10568 10568 10569 10569 10570 10570 10570 10570 10570 10571 10571 10571 10571 10571 10571
10547 10546 10544 10544 10545 10540 10536 10537 10539 10539 10542 10545 10547 10550 10553 10555 10556 10557 10558 10558 10558 10558 10558 10559 10559 10560 10560 10561 10562 10562 10563 10563 10564 10564 10564 10564 10565 10565 10565 10565 10565 10565
10544 10542 10539 10538 10539 10537 10534 10532 10532 10533 10535 10537 10539 10542 10544 10547 10549 10550 10551 10551 10551 10552 10552 10552 10552 10552 10553 10553 10554 10555 10555 10556 10557 10557 10558 10558 10558 10559 10559 10559 10559 10559
10539 10534 10531 10532 10531 10531 10530 10529 10528 10529 10529 10529 10531 10532 10534 10537 10540 10542 10543 10544 10544 10545 10545 10545 10545 10545 10545 10546 10546 10547 10548 10549 10550 10550 10551 10551 10551 10552 10552 10552 10553 10553
10531 10524 10523 10525 10525 10525 10525 10525 10525 10526 10526 10525 10525 10525 10525 10526 10529 10532 10534 10535 10536 10537 10537 10538 10538 10538 10538 10539 10539 10540 10541 10542 10543 10544 10544 10544 10544 10544 10544 10544 10545 10546
10523 10518 10516 10519 10521 10520 10520 10520 10521 10521 10522 10522 10521 10521 10520 10520 10520 10522 10524 10525 10527 10528 10529 10530 10530 10531 10531 10532 10533 10533 10534 10535 10536 10537 10537 10537 10537 10537 10537 10537 10538 10539
10517 10513 10514 10516 10516 10514 10512 10514 10515 10516 10516 10517 10517 10517 10517 10517 10516 10514 10515 10517 10518 10519 10520 10521 10522 10523 10523 10524 10525 10527 10528 10529 10530 10530 10530 10530 10529 10529 10530 10530 10530 10531
10514 10511 10512 10513 10510 10506 10505 10506 10509 10510 10510 10510 10510 10512 10513 10513 10511 10509 10509 10510 10511 10511 10511 10512 10513 10513 10514 10516 10518 10520 10522 10523 10523 10523 10523 10523 10523 10522 10523 10523 10524 10525
10510 10507 10508 10508 10504 10501 10500 10501 10503 10504 10503 10502 10502 10504 10506 10507 10506 10505 10505 10505 10505 10503 10502 10502 10503 10504 10505 10508 10511 10514 10516 10516 10516 10516 10515 10515 10515 10516 10516 10516 10517 10517
10503 10502 10502 10502 10499 10497 10497 10497 10496 10497 10496 10495 10494 10495 10497 10499 10500 10500 10499 10500 10500 10498 10495 10494 10493 10493 10494 10498 10504 10509 10510 10510 10509 10508 10508 10508 10508 10508 10508 10509 10509 10510
10495 10495 10495 10495 10495 10495 10494 10492 10490 10490 10489 10487 10486 10487 10488 10490 10492 10493 10494 10493 10493 10493 10489 10485 10483 10483 10484 10487 10495 10503 10505 10502 10501 10500 10500 10500 10500 10501 10501 10502 10502 10503
10487 10487 10488 10488 10490 10490 10488 10485 10485 10485 10482 10477 10477 10479 10481 10482 10483 10486 10489 10488 10487 10486 10482 10476 10472 10474 10476 10478 10483 10492 10497 10495 10493 10492 10492 10492 10492 10493 10494 10495 10495 10496
10478 10479 10479 10481 10483 10483 10481 10479 10480 10479 10475 10471 10470 10471 10474 10476 10477 10479 10482 10482 10481 10479 10475 10470 10466 10464 10466 10469 10473 10480 10486 10487 10486 10485 10484 10484 10485 10485 10486 10487 10488 10488
10469 10471 10472 10473 10474 10475 10475 10475 10473 10470 10468 10466 10464 10464 10467 10469 10471 10473 10475 10475 10473 10472 10469 10467 10464 10460 10459 10460 10463 10467 10474 10478 10479 10479 10478 10478 10478 10478 10479 10480 10480 10480
10463 10465 10465 10466 10467 10467 10467 10468 10464 10461 10461 10460 10459 10460 10461 10461 10462 10465 10467 10467 10466 10465 10463 10461 10460 10457 10455 10454 10455 10458 10462 10466 10469 10471 10472 10472 10471 10471 10471 10472 10472 10473
10455 10457 10457 10458 10458 10457 10457 10456 10453 10452 10454 10453 10453 10455 10457 10456 10455 10456 10458 10458 10458 10458 10457 10456 10454 10453 10452 10450 10450 10451 10453 10455 10459 10461 10463 10464 10464 10463 10463 10463 10464 10464
10446 10448 10449 10449 10449 10449 10449 10446 10444 10446 10446 10445 10446 10449 10450 10450 10450 10450 10450 10449 10449 10449 10449 10449 10448 10448 10447 10445 10444 10444 10445 10447 10449 10452 10454 10455 10455 10455 10455 10455 10455 10456
10436 10437 10439 10439 10439 10440 10441 10438 10437 10438 10438 10437 10439 10441 10442 10443 10443 10443 10443 10442 10442 10441 10441 10440 10440 10440 10440 10439 10439 10438 10438 10439 10441 10443 10445 10446 10446 10447 10447 10447 10447 10447
10426 10427 10428 10429 10429 10429 10431 10430 10430 10430 10429 10429 10431 10433 10433 10434 10435 10435 10435 10435 10435 10435 10434 10433 10433 10432 10432 10433 10433 10433 10433 10433 10434 10435 10436 10437 10438 10438 10438 10439 10439 10439
10416 10416 10417 10418 10419 10420 10421 10422 10422 10422 10421 10421 10423 10424 10425 10425 10425 10425 10425 10425 10425 10426 10426 10425 10425 10425 10425 10426 10427 10428 10428 10428 10428 10429 10429 10430 10430 10430 10430 10431 10431 10431
10407 10407 10408 10409 10410 10410 10410 10412 10413 10413 10414 10414 10414 10415 10415 10415 10415 10415 10415 10415 10415 10415 10416 10416 10416 10416 10417 10418 10419 10420 10421 10422 10422 10422 10422 10422 10423 10423 10423 10423 10424 10423
10399 10399 10399 10400 10400 10400 10400 10401 10403 10404 10405 10406 10405 10405 10405 10406 10405 10405 10405 10405 10405 10405 10405 10405 10406 10407 10408 10409 10411 10411 10412 10413 10414 10414 10414 10415 10415 10415 10416 10415 10415 10414
10388 10389 10390 10390 10390 10391 10391 10392 10392 10393 10394 10395 10395 10395 10396 10396 10396 10396 10395 10395 10394 10394 10395 10396 10396 10398 10399 10400 10402 10403 10403 10404 10405 10405 10406 10406 10407 10407 10407 10407 10406 10405